sat.trackr.live / text

‹ back to catalog

LEMUR-2-EMARCHIA

NORAD 68492 · 2026-067CE

PAYLOAD ACTIVE UNKNOWN

§ Identity

Operator
Country
GER
Launch date
2026-03-30
Launch site
AFWTR
Launch vehicle
Mass (kg)
RCS (m²)

External: N2YO · Heavens-Above · Gunter

§ Orbital elements

Epoch: 2026-09-18T14:54:30.809952Z

Period
96.48 min
Inclination
97.7653°
Eccentricity
0.0005137
Mean motion
14.92488049 rev/d
Perigee alt
586.6 km
Apogee alt
593.8 km
Semi-major
6,968.3 km
B*
3.8979e-4
RAAN
218.3944°
Arg perigee
97.3146°
Mean anomaly
262.8657°
Rev number
2,565

§ Raw data

LEMUR-2-EMARCHIA1 68492U 26067CE  26261.62118993  .00003945  00000+0  38979-3 0  99952 68492  97.7653 218.3944 0005137  97.3146 262.8657 14.92488049 25658

JSON: /api/v1/satellites/68492 · /tle

For live sub-satellite position, see the globe view (requires WebGL).

§ Visibility from observer

Set your observer location to see the next 7 days of passes ≥ 10°. The values pass through the URL so the page stays shareable.

No JS? Fill the form by hand. The geolocation button needs JavaScript.